Location: Newark
(55.8871°S, 37.4681°W)
Time: 02:05:06
(UTC+00:00)

Envisat - Visible Passes

Search period start: 19 August 2019 00:00
Search period end: 29 August 2019 00:00
Orbit: 764 x 766 km, 98.1° (Epoch: 17 August)

Date Brightness Start Highest point End Pass type
(mag) Time Alt. Az. Time Alt. Az. Time Alt. Az.
19 Aug 5.9 00:22:02 10° SSW 00:24:23 13° SW 00:26:44 10° WSW visible
19 Aug 5.4 06:47:15 10° ENE 06:51:08 22° SE 06:55:03 10° S visible
19 Aug 3.0 08:24:25 10° NNE 08:29:35 89° WNW 08:34:49 10° SSW visible
19 Aug 4.2 20:26:20 10° SE 20:30:04 20° E 20:33:48 10° NE visible
19 Aug 3.0 22:04:35 10° SSE 22:09:47 85° WSW 22:14:57 10° NNW visible
19 Aug 5.4 23:44:25 10° S 23:48:11 21° SW 23:51:55 10° W visible
20 Aug 5.9 06:12:17 10° ESE 06:14:54 14° SE 06:17:31 10° SSE visible
20 Aug 3.9 07:47:55 10° NE 07:52:54 52° ESE 07:57:56 10° S visible
20 Aug 3.1 21:27:51 10° SSE 21:32:56 54° E 21:37:58 10° N visible
20 Aug 4.6 23:07:12 10° S 23:11:48 33° WSW 23:16:22 10° WNW visible
21 Aug 4.9 07:11:54 10° ENE 07:16:23 31° ESE 07:20:52 10° S visible
21 Aug 3.1 08:50:05 10° N 08:55:10 59° W 09:00:18 10° SSW visible
21 Aug 3.8 20:51:22 10° SSE 20:55:54 30° E 21:00:24 10° NNE visible
21 Aug 3.6 22:30:11 10° S 22:35:16 57° WSW 22:40:17 10° NW visible
22 Aug 5.8 00:10:28 10° SSW 00:13:19 15° SW 00:16:10 10° W visible
22 Aug 5.6 06:36:27 10° E 06:40:01 19° SE 06:43:37 10° S visible
22 Aug 3.2 08:13:12 10° NNE 08:18:20 78° ESE 08:23:33 10° SSW visible
22 Aug 4.4 20:15:24 10° SE 20:18:40 17° E 20:21:55 10° NE visible
22 Aug 2.9 21:53:19 10° SSE 21:58:33 82° ENE 22:03:41 10° NNW visible
22 Aug 5.2 23:33:00 10° S 23:37:04 24° SW 23:41:05 10° WNW visible
23 Aug 6.0 06:01:48 10° ESE 06:03:50 12° SE 06:05:52 10° SSE visible
23 Aug 4.2 07:36:50 10° NE 07:41:42 44° ESE 07:46:37 10° S visible
23 Aug 3.3 21:16:39 10° SSE 21:21:38 45° E 21:26:33 10° N visible
23 Aug 4.3 22:55:51 10° S 23:00:38 39° WSW 23:05:22 10° NW visible
24 Aug 6.1 00:37:03 10° SSW 00:38:23 11° SW 00:39:43 10° SW visible
24 Aug 5.1 07:00:59 10° ENE 07:05:14 27° SE 07:09:31 10° S visible
24 Aug 3.0 08:38:45 10° N 08:43:52 71° WNW 08:49:04 10° SSW visible
24 Aug 4.0 20:40:17 10° SE 20:44:32 25° E 20:48:45 10° NE visible
24 Aug 3.3 22:18:53 10° SSE 22:24:03 67° WSW 22:29:08 10° NNW visible
24 Aug 5.6 23:58:57 10° S 00:02:14 17° SW 00:05:30 10° W visible
25 Aug 5.8 06:25:43 10° E 06:28:55 17° SE 06:32:10 10° S visible
25 Aug 3.5 08:02:01 10° NNE 08:07:07 66° ESE 08:12:16 10° SSW visible
25 Aug 2.9 21:42:04 10° SSE 21:47:16 69° ENE 21:52:23 10° N visible
25 Aug 5.0 23:21:37 10° S 23:25:56 27° SW 23:30:12 10° WNW visible
26 Aug 6.1 05:51:35 10° SE 05:52:47 11° SE 05:53:59 10° SSE visible
26 Aug 4.5 07:25:48 10° NE 07:30:31 38° ESE 07:35:17 10° S visible
26 Aug 3.5 21:05:29 10° SSE 21:10:18 38° E 21:15:04 10° NNE visible
26 Aug 4.1 22:44:31 10° S 22:49:27 45° WSW 22:54:20 10° NW visible
27 Aug 6.0 00:25:13 10° SSW 00:27:20 13° SW 00:29:27 10° WSW visible
27 Aug 5.4 06:50:06 10° ENE 06:54:06 23° SE 06:58:07 10° S visible
27 Aug 3.0 08:27:27 10° NNE 08:32:36 84° WNW 08:37:49 10° SSW visible
27 Aug 4.2 20:29:14 10° SE 20:33:09 21° E 20:37:01 10° NE visible
27 Aug 3.1 22:07:36 10° SSE 22:12:48 80° WSW 22:17:56 10° NNW visible
27 Aug 5.5 23:47:30 10° S 23:51:08 20° SW 23:54:45 10° W visible
28 Aug 5.9 06:15:03 10° ESE 06:17:51 15° SE 06:20:39 10° SSE visible
28 Aug 3.8 07:50:52 10° NE 07:55:53 56° ESE 08:00:58 10° S visible
28 Aug 3.0 21:30:51 10° SSE 21:35:58 58° E 21:41:02 10° N visible
28 Aug 4.7 23:10:15 10° S 23:14:47 31° WSW 23:19:16 10° WNW visible
